[[{"header":{"parameterUnit":"m.s-1","parameterCategory":1,"la1":30.2991,"la2":30.254,"lo1":-89.0895,"lo2":-89.0444,"dy":0.0017,"dx":0.0017,"nx":28,"ny":28,"refTime":"2023-09-04T09:00:00:Z","depth":0,"parameterNumber":2,"parameterNumberName":"U-component_of_WINDS"},"data":[0,0,0,0,0,0,0,0,0,0,0,0,0,0,0,0,0,0,0,0,0,0,0,0,0,0,0,0,0,0,0,0,0,0,0,0,0,0,0,0,0,0,0,0,0,0,0,0,0,0,0,0,0,0,0,0,0,0,-3.2219,-3.2223,0,-3.2561,-3.2565,-3.2569,-3.2717,-3.2717,-3.2716,-3.2716,-3.3058,-3.3067,-3.3077,0,0,0,0,0,0,0,0,0,0,0,0,0,-3.1688,-3.1697,-3.2219,-3.2223,-3.2228,-3.2561,-3.2565,-3.257,-3.2717,-3.2717,-3.2716,-3.2715,-3.3055,-3.3066,-3.3077,0,0,0,0,0,0,0,0,0,0,0,0,0,-3.1963,-3.17,-3.2218,-3.2342,-3.2356,-3.256,-3.2565,-3.2571,-3.2717,-3.2717,-3.2716,-3.2715,-3.3051,-3.3065,-3.3079,-3.3183,0,0,-3.3123,-3.3129,0,0,0,0,0,0,0,0,-3.1947,-3.1982,-3.2319,-3.2333,-3.235,-3.2596,-3.2504,-3.2776,-3.2718,-3.258,-3.2716,-3.2715,-3.2904,-3.2931,-3.2996,-3.3199,-3.3214,-3.3124,-3.3133,-3.3139,-3.3143,0,0,0,0,0,0,0,-3.1928,-3.1968,-3.2354,-3.2324,-3.2343,-3.2378,-3.2416,-3.2556,-3.2742,-3.2592,-3.2603,-3.2642,-3.2912,-3.2982,-3.3005,-3.3219,-3.3124,-3.3137,-3.3145,-3.3151,-3.3527,-3.3529,0,0,0,0,0,0,-3.189,-3.1952,-3.2343,-3.2365,-3.2143,-3.2388,-3.2431,-3.2518,-3.2741,-3.2774,-3.2643,-3.2648,-3.2958,-3.2988,-3.3018,-3.3157,-3.3139,-3.3152,-3.3161,-3.3526,-3.3528,-3.3529,0,0,0,0,0,0,-3.1878,-3.1923,-3.233,-3.2162,-3.2216,-3.2398,-3.2494,-3.2525,-3.2595,-3.2779,-3.2813,-3.268,-3.2958,-3.2998,-3.3142,-3.317,-3.3159,-3.3172,-3.3524,-3.3526,-3.3528,-3.3433,0,0,0,0,0,0,-3.1862,-3.1918,-3.1961,-3.2161,-3.2224,-3.2449,-3.2496,-3.2532,-3.262,-3.263,-3.2823,-3.2854,-3.2961,-3.312,-3.3156,-3.319,-3.3183,-3.3523,-3.3525,-3.3528,-3.3434,-3.3431,-3.3429,0,0,0,0,0,-3.1842,-3.1918,-3.1962,-3.2008,-3.2282,-3.2451,-3.2487,-3.261,-3.2622,-3.2665,-3.2785,-3.2848,-3.3161,-3.3133,-3.3176,-3.3214,-3.3521,-3.3525,-3.3528,-3.3436,-3.3432,-3.3429,0,0,0,0,0,0,-3.1712,-3.1946,-3.1998,-3.2141,-3.2275,-3.2476,-3.2534,-3.2602,-3.2733,-3.2737,-3.2882,-3.2924,-3.3057,-3.315,-3.3115,-3.3328,-3.3347,-3.3358,-3.3262,-3.3261,-3.3258,-3.3232,-3.3195,0,0,0,0,0,-3.1701,-3.1821,-3.2018,-3.2125,-3.219,-3.235,-3.2428,-3.2512,-3.2656,-3.2713,-3.2843,-3.2978,-3.3107,-3.3189,-3.3318,-3.3449,-3.3493,-3.3496,-3.3493,-3.349,-3.3498,-3.3576,-3.358,-3.3539,-3.3539,-3.3539,0,0,-3.1677,-3.182,-3.1886,-3.2102,-3.2217,-3.2336,-3.2397,-3.252,-3.261,-3.2731,-3.2877,-3.2976,-3.3137,-3.3276,-3.3343,-3.3357,-3.352,-3.3494,-3.349,-3.3501,-3.358,-3.3583,-3.3587,-3.3541,-3.3541,-3.3541,0,0,-3.1695,-3.1815,-3.1919,-3.2033,-3.2206,-3.2313,-3.2337,-3.2529,-3.2601,-3.275,-3.2844,-3.2952,-3.3171,-3.3282,-3.3367,-3.3431,-3.3495,-3.3469,-3.3454,-3.3528,-3.3532,-3.3535,-3.3559,-3.3565,-3.3476,-3.3476,-3.3476,0,-3.1643,-3.183,-3.1963,-3.2083,-3.2175,-3.2294,-3.2399,-3.2502,-3.2707,-3.2768,-3.2781,-3.3062,-3.3177,-3.3345,-3.3361,-3.3425,-3.3458,-3.3447,-3.3521,-3.3526,-3.3531,-3.3555,-3.3563,-3.3472,-3.3472,-3.3473,-3.3473,0,-3.1758,-3.1885,-3.1948,-3.2147,-3.2247,-3.2358,-3.2507,-3.2591,-3.2667,-3.2771,-3.2922,-3.3066,-3.3228,-3.3274,-3.3347,-3.3452,-3.3456,-3.3493,-3.3515,-3.3528,-3.3553,-3.3564,-3.3466,-3.3467,-3.3468,-3.347,0,0,-3.1703,-3.1976,-3.1997,-3.209,-3.229,-3.2391,-3.2507,-3.2669,-3.2738,-3.2876,-3.2977,-3.3162,-3.3199,-3.3295,-3.3382,-3.3447,-3.349,-3.3478,-3.3484,-3.3475,-3.3616,-3.3587,-3.3595,-3.3534,-3.3536,-3.3538,-3.3603,0,-3.1749,-3.1967,-3.2091,-3.2257,-3.2377,-3.2492,-3.2594,-3.2727,-3.2828,-3.2943,-3.3054,-3.3183,-3.3222,-3.3281,-3.3351,-3.347,-3.352,-3.3467,-3.3629,-3.3633,-3.3585,-3.3608,-3.3578,-3.3631,-3.3613,-3.3615,-3.3616,0,-3.1832,-3.1972,-3.2149,-3.2339,-3.2394,-3.2484,-3.2643,-3.2751,-3.2905,-3.2974,-3.3083,-3.3171,-3.3298,-3.331,-3.3487,-3.3448,-3.3522,-3.359,-3.3596,-3.3615,-3.3625,-3.3628,-3.3652,-3.3659,-3.3633,-3.3631,-3.363,0,-3.1775,-3.2007,-3.2145,-3.222,-3.2444,-3.2504,-3.26,-3.2753,-3.2843,-3.298,-3.304,-3.3189,-3.3271,-3.3384,-3.3509,-3.3507,-3.3674,-3.3696,-3.3734,-3.3731,-3.3764,-3.376,-3.3799,-3.381,-3.381,-3.381,-3.381,0,-3.1815,-3.1919,-3.2122,-3.2206,-3.2327,-3.2469,-3.2584,-3.2688,-3.2824,-3.293,-3.3037,-3.3134,-3.3294,-3.341,-3.3508,-3.364,-3.3676,-3.3735,-3.376,-3.3726,-3.3718,-3.3775,-3.3775,-3.3812,-3.3812,-3.3811,-3.3811,0,-3.1771,-3.1912,-3.2069,-3.227,-3.2322,-3.2402,-3.2573,-3.2659,-3.2767,-3.2899,-3.2938,-3.3107,-3.3249,-3.3386,-3.3575,-3.3642,-3.3774,-3.3806,-3.3723,-3.3737,-3.3767,-3.3762,-3.3844,-3.3863,-3.386,-3.386,-3.386,0,-3.1788,-3.1872,-3.2082,-3.2162,-3.2256,-3.2383,-3.2476,-3.2618,-3.271,-3.2893,-3.2956,-3.3107,-3.3236,-3.3458,-3.3596,-3.3742,-3.3779,-3.3798,-3.3801,-3.3765,-3.378,-3.3774,-3.3783,-3.3794,-3.3793,-3.3793,-3.3792,0,-3.1802,-3.1868,-3.1999,-3.2155,-3.2263,-3.2392,-3.2524,-3.2583,-3.275,-3.2848,-3.2997,-3.3096,-3.3292,-3.3441,-3.3603,-3.37,-3.3774,-3.3791,-3.3807,-3.3773,-3.3721,-3.3751,-3.3714,-3.3788,-3.3788,-3.3788,-3.3789,-3.3789,-3.179,-3.1871,-3.2032,-3.2174,-3.229,-3.2411,-3.2502,-3.2623,-3.275,-3.2922,-3.2998,-3.3148,-3.3301,-3.3527,-3.3623,-3.3742,-3.3759,-3.3783,-3.3789,-3.3793,-3.3786,-3.3702,-3.3772,-3.3772,-3.3772,-3.3773,-3.3773,0,-3.1811,-3.1921,-3.205,-3.2234,-3.2346,-3.2409,-3.2559,-3.2648,-3.2779,-3.2917,-3.3042,-3.3213,-3.3358,-3.3508,-3.3662,-3.3728,-3.3766,-3.3763,-3.376,-3.3781,-3.3761,-3.3732,-3.373,-3.373,-3.373,-3.373,-3.373,-3.373,-3.1834,-3.1975,-3.206,-3.2258,-3.2367,-3.2517,-3.2597,-3.271,-3.2821,-3.3008,-3.313,-3.3228,-3.3371,-3.3536,-3.3672,-3.3712,-3.3764,-3.3752,-3.3801,-3.378,-3.3782,-3.3785,-3.3758,-3.3762,-3.3762,-3.3812,-3.3812,-3.3812]},{"header":{"parameterUnit":"m.s-1","parameterCategory":1,"la1":30.2991,"la2":30.254,"lo1":-89.0895,"lo2":-89.0444,"dy":0.0017,"dx":0.0017,"nx":28,"ny":28,"refTime":"2023-09-04T09:00:00:Z","depth":0,"parameterNumber":3,"parameterNumberName":"V-component_of_WINDS"},"data":[0,0,0,0,0,0,0,0,0,0,0,0,0,0,0,0,0,0,0,0,0,0,0,0,0,0,0,0,0,0,0,0,0,0,0,0,0,0,0,0,0,0,0,0,0,0,0,0,0,0,0,0,0,0,0,0,0,0,3.9308,3.931,0,3.9455,3.9457,3.9458,3.9424,3.9421,3.9418,3.9415,3.9558,3.9564,3.957,0,0,0,0,0,0,0,0,0,0,0,0,0,3.8989,3.8995,3.9308,3.931,3.9312,3.9455,3.9457,3.9459,3.9424,3.9421,3.9417,3.9414,3.9556,3.9563,3.9571,0,0,0,0,0,0,0,0,0,0,0,0,0,3.9131,3.8997,3.9308,3.9312,3.9314,3.9455,3.9457,3.9459,3.9425,3.942,3.9416,3.9412,3.9553,3.9562,3.9572,3.9715,0,0,3.9601,3.9605,0,0,0,0,0,0,0,0,3.9123,3.9143,3.9309,3.9312,3.9314,3.9417,3.9397,3.9545,3.9426,3.9382,3.9415,3.941,3.9514,3.9526,3.9563,3.9722,3.9728,3.9602,3.9608,3.9612,3.9615,0,0,0,0,0,0,0,3.9113,3.9136,3.9366,3.9312,3.9315,3.9304,3.9319,3.9425,3.9469,3.9386,3.9384,3.9402,3.9514,3.9554,3.9566,3.973,3.9602,3.961,3.9616,3.962,4.0014,4.0018,0,0,0,0,0,0,3.9102,3.9128,3.9361,3.937,3.9206,3.9313,3.933,3.9388,3.9468,3.9477,3.9405,3.94,3.9539,3.9555,3.9571,3.9744,3.9612,3.9621,3.9626,4.0009,4.0015,4.002,0,0,0,0,0,0,3.9096,3.9124,3.9355,3.9249,3.9278,3.9323,3.9388,3.9393,3.9433,3.9483,3.949,3.9438,3.9537,3.9557,3.968,3.9748,3.9625,3.9634,4.0004,4.0011,4.0017,4.0091,0,0,0,0,0,0,3.9087,3.9121,3.9178,3.9251,3.9283,3.9465,3.9392,3.9399,3.945,3.9444,3.9516,3.9523,3.9535,3.9666,3.969,3.9759,3.9641,3.9998,4.0007,4.0015,4.0082,4.0099,4.0114,0,0,0,0,0,3.9076,3.9191,3.9181,3.9209,3.9356,3.9469,3.9487,3.95,3.9456,3.9512,3.9545,3.9521,3.9737,3.9679,3.9705,3.9778,3.9993,4.0004,4.0014,4.0075,4.0096,4.0114,0,0,0,0,0,0,3.9122,3.92,3.919,3.9333,3.9395,3.9463,3.9534,3.9522,3.9595,3.9586,3.9597,3.9613,3.9739,3.9771,3.9705,3.9921,3.9858,3.9875,3.9896,3.9916,3.9931,3.992,3.9649,0,0,0,0,0,3.915,3.9238,3.93,3.942,3.9452,3.9488,3.9537,3.9543,3.9606,3.9631,3.9672,3.9732,3.9813,3.9866,3.9944,4.0087,4.0101,4.0151,4.0166,4.0179,4.0193,4.027,4.0292,4.0055,4.0055,4.0054,0,0,3.9206,3.926,3.9314,3.9431,3.9479,3.9568,3.951,3.9605,3.9671,3.9644,3.9764,3.9796,3.9864,3.9998,4.0058,4.0028,4.0262,4.0193,4.0202,4.0209,4.0283,4.0306,4.0326,4.0062,4.006,4.0059,0,0,3.9354,3.9404,3.951,3.956,3.9636,3.9659,3.9684,3.9755,3.9776,3.9897,3.9879,3.9955,4.0096,4.0144,4.0188,4.0356,4.0337,4.0381,4.0462,4.0538,4.0557,4.0573,4.0632,4.0653,4.0394,4.0395,4.0395,0,3.9414,3.9549,3.9565,3.9663,3.9714,3.9698,3.9804,3.9851,3.9947,3.9981,3.9947,4.0123,4.0167,4.0312,4.0354,4.039,4.0417,4.0372,4.0553,4.057,4.0586,4.0642,4.0664,4.0399,4.0399,4.0398,4.0398,0,3.9618,3.9712,3.9788,3.9884,3.9944,4.0045,4.0074,4.0133,4.0133,4.016,4.0282,4.0335,4.0423,4.0458,4.0458,4.0603,4.0582,4.0551,4.0487,4.0613,4.0666,4.0688,4.0406,4.0404,4.0403,4.0402,0,0,3.9797,3.9903,3.9931,3.9974,4.0057,4.0128,4.0228,4.0318,4.0367,4.0434,4.0517,4.0637,4.0609,4.0658,4.0663,4.073,4.0859,4.069,4.0692,4.0718,4.102,4.1043,4.1068,4.0847,4.0851,4.0855,4.1014,0,3.9952,4.0132,4.015,4.0309,4.0396,4.0382,4.0469,4.0528,4.0556,4.0631,4.066,4.0745,4.0702,4.0732,4.0797,4.0829,4.0919,4.0818,4.0922,4.0926,4.0905,4.1096,4.112,4.1268,4.1035,4.1039,4.1042,0,4.0156,4.0232,4.0402,4.0473,4.051,4.0588,4.0672,4.0745,4.081,4.0826,4.0882,4.0879,4.098,4.0914,4.1052,4.0983,4.1027,4.1049,4.1055,4.1064,4.099,4.1108,4.1315,4.1337,4.1075,4.1072,4.107,0,4.0269,4.0413,4.0534,4.0571,4.0658,4.0713,4.0751,4.0813,4.0866,4.0938,4.0972,4.1054,4.1099,4.1161,4.1179,4.113,4.1317,4.1253,4.133,4.133,4.1369,4.1366,4.1584,4.1399,4.1399,4.1398,4.1398,0,4.0439,4.0543,4.0586,4.0659,4.0775,4.0794,4.0906,4.0941,4.0997,4.1075,4.1068,4.1141,4.1162,4.1238,4.1253,4.1365,4.1385,4.1398,4.1401,4.1399,4.1397,4.1426,4.1416,4.1404,4.1403,4.1402,4.1401,0,4.0584,4.0617,4.0747,4.0819,4.084,4.0922,4.0982,4.1052,4.1079,4.1179,4.1203,4.1245,4.1335,4.136,4.1466,4.1476,4.1607,4.1601,4.1586,4.1586,4.1661,4.1654,4.1905,4.1939,4.1733,4.1735,4.1736,0,4.0689,4.0769,4.0851,4.0905,4.0947,4.1033,4.1087,4.1108,4.1165,4.1247,4.1307,4.1396,4.1469,4.1612,4.165,4.1732,4.1726,4.1809,4.1738,4.1734,4.1726,4.1721,4.1729,4.1822,4.1824,4.1826,4.1827,0,4.0873,4.0886,4.0967,4.1054,4.1121,4.1189,4.1255,4.1299,4.1329,4.1393,4.1486,4.1543,4.1653,4.1741,4.1825,4.186,4.1849,4.185,4.1872,4.187,4.1858,4.1864,4.1621,4.1843,4.1842,4.1841,4.184,4.1839,4.1001,4.1072,4.1141,4.1231,4.1284,4.1346,4.1416,4.1453,4.1532,4.1626,4.1633,4.1734,4.1797,4.1908,4.1949,4.2027,4.2002,4.2034,4.2042,4.2049,4.2055,4.1847,4.2042,4.2041,4.2041,4.204,4.204,0,4.1184,4.1228,4.1311,4.1405,4.1476,4.1463,4.1535,4.1594,4.1684,4.1746,4.1818,4.1925,4.2011,4.2057,4.2142,4.2195,4.2192,4.2217,4.2212,4.2221,4.2073,4.2045,4.2218,4.2218,4.2218,4.2218,4.2218,4.2218,4.1287,4.1406,4.1427,4.1572,4.1615,4.1716,4.1759,4.1815,4.1865,4.1986,4.2059,4.2089,4.2144,4.2233,4.2311,4.2322,4.2353,4.2381,4.2389,4.2249,4.2231,4.2214,4.2187,4.2388,4.2388,4.253,4.2531,4.2532]}]]